User: anonymous   Login
Location: Laguna de la Cañada del Gallo
(40.3974°N, 5.2096°W)
Time: 07:16:50
(UTC+00:00)
Language:

Cosmos 1536 Rocket - Orbit

View from above orbital plane
View from above orbital plane
View from above satellite
View from above satellite

Ground track
Ground track

The orbit data is extracted from the following two-line orbital elements,

1 14700U 84013B   24166.84754653  .00000812  00000-0  93450-4 0  9995
2 14700  82.5364 289.1508 0019339 177.9664 298.4048 14.84417655158644
Epoch (UTC): 14 June 2024 20:20:28
Eccentricity: 0.0019339
inclination: 82.5364°
perigee height: 602 km
apogee height: 629 km
right ascension of ascending node: 289.1508°
argument of perigee: 177.9664°
revolutions per day: 14.84417655
mean anomaly at epoch: 298.4048°
orbit number at epoch: 15864

The dashed part of the orbit path shows where the satellite is in the earth's shadow,  

DLR